Albertville, AL

11:45 AM CDT on April 23, 2018 (GMT -0500)
Albertville

Weather History for K8A0 - June, 2013

Change the Weather History Date:

Tuesday, June 18, 2013

  Actual Average (KGAD) Record (KGAD)
Temperature  
Mean Temperature 75 °F -  
Max Temperature 82 °F 83 °F 103 °F (1936)
Min Temperature 68 °F 63 °F 54 °F (1941)
Cooling Degree Days 10    
Growing Degree Days 25 (Base 50)    
Moisture  
Dew Point 70 °F    
Average Humidity 89    
Maximum Humidity 100    
Minimum Humidity 62    
Precipitation  
Precipitation 0.61 in - - ()
Sea Level Pressure  
Sea Level Pressure 29.93 in    
Wind  
Wind Speed 6 mph (WSW)    
Max Wind Speed 15 mph    
Max Gust Speed 21 mph    
Visibility 8 miles    
Events Rain , Thunderstorm    
Averages and records for this station are not official NWS values.
T = Trace of Precipitation, MM = Missing Value Source: NWS Daily Summary

Daily Weather History Graph

Daily Weather History Graph

Search for Another Location

Airport or City:

Astronomy

Jun. 18, 2013 Rise Set
Actual Time 5:33 AM CDT 7:59 PM CDT
Civil Twilight 5:03 AM CDT 8:28 PM CDT
Nautical Twilight 4:27 AM CDT 9:04 PM CDT
Astronomical Twilight 3:47 AM CDT 9:44 PM CDT
Moon 2:53 PM CDT (6/18) 1:29 AM CDT (6/18)
Length of Visible Light 15h 25m
Length of Day
14h 26m
Waxing Gibbous, 71% of the Moon is Illuminated
Jun 18
Waxing Gibbous
Jun 23
Full
Jun 29
Last Quarter
Jul 8
New
Jul 15
First Quarter

Hourly Weather History & Observations

Time (CDT) Temp. Heat Index Dew Point Humidity Pressure Visibility Wind Dir Wind Speed Gust Speed Precip Events Conditions
12:15 AM 69.8 °F - 69.8 °F 100% 29.94 in 10.0 mi South 5.8 mph - N/A   Clear
12:35 AM 69.8 °F - 69.8 °F 100% 29.93 in 7.0 mi SSE 4.6 mph - N/A   Scattered Clouds
12:55 AM 69.8 °F - 69.8 °F 100% 29.92 in 7.0 mi SSE 3.5 mph - N/A   Clear
1:15 AM 69.8 °F - 69.8 °F 100% 29.93 in 7.0 mi South 4.6 mph - N/A   Mostly Cloudy
1:35 AM 69.8 °F - 69.8 °F 100% 29.93 in 7.0 mi SSW 6.9 mph - 0.01 in Rain Light Rain
1:55 AM 69.8 °F - 69.8 °F 100% 29.93 in 5.0 mi SSW 6.9 mph - 0.02 in Rain Light Rain
2:15 AM 69.8 °F - 69.8 °F 100% 29.92 in 10.0 mi South 6.9 mph - N/A   Overcast
2:35 AM 69.8 °F - 69.8 °F 100% 29.92 in 10.0 mi South 6.9 mph - N/A   Mostly Cloudy
2:55 AM 69.8 °F - 69.8 °F 100% 29.91 in 10.0 mi South 6.9 mph - N/A   Mostly Cloudy
3:15 AM 69.8 °F - 69.8 °F 100% 29.92 in 7.0 mi SSW 6.9 mph - 0.01 in Rain Light Rain
3:35 AM 68.0 °F - 68.0 °F 100% 29.90 in 7.0 mi South 12.7 mph 16.1 mph 0.04 in Rain Light Rain
3:55 AM 68.0 °F - 68.0 °F 100% 29.89 in 10.0 mi South 9.2 mph - 0.05 in Rain Light Rain
4:15 AM 68.0 °F - 68.0 °F 100% 29.89 in 5.0 mi South 6.9 mph - 0.01 in Rain Rain
4:35 AM 69.8 °F - 69.8 °F 100% 29.91 in 1.5 mi Calm Calm - 0.36 in Rain , Thunderstorm Heavy Thunderstorms and Rain
4:55 AM 69.8 °F - 69.8 °F 100% 29.92 in 5.0 mi SW 5.8 mph - 0.48 in Rain , Thunderstorm Light Thunderstorms and Rain
5:15 AM 69.8 °F - 69.8 °F 100% 29.92 in 10.0 mi Calm Calm - N/A   Overcast
5:35 AM 69.8 °F - 69.8 °F 100% 29.92 in 10.0 mi SW 3.5 mph - N/A   Overcast
5:55 AM 69.8 °F - 69.8 °F 100% 29.92 in 10.0 mi SSW 3.5 mph - N/A   Overcast
6:15 AM 69.8 °F - 69.8 °F 100% 29.92 in 10.0 mi SSW 4.6 mph - N/A   Overcast
6:35 AM 69.8 °F - 69.8 °F 100% 29.93 in 2.5 mi SSW 4.6 mph - N/A   Overcast
6:55 AM 69.8 °F - 69.8 °F 100% 29.93 in 2.5 mi SSW 5.8 mph - N/A   Overcast
7:15 AM 69.8 °F - 69.8 °F 100% 29.94 in 4.0 mi SSW 8.1 mph - N/A   Overcast
7:35 AM 71.6 °F - 71.6 °F 100% 29.94 in 4.0 mi SSW 5.8 mph - N/A   Overcast
7:55 AM 71.6 °F - 71.6 °F 100% 29.94 in 4.0 mi SSW 8.1 mph - N/A   Overcast
8:15 AM 71.6 °F - 71.6 °F 100% 29.94 in 5.0 mi SW 9.2 mph - N/A   Overcast
8:35 AM 71.6 °F - 71.6 °F 100% 29.95 in 5.0 mi SW 4.6 mph - N/A   Overcast
8:55 AM 71.6 °F - 71.6 °F 100% 29.94 in 5.0 mi SW 6.9 mph - N/A   Overcast
9:15 AM 71.6 °F - 71.6 °F 100% 29.94 in 2.5 mi WSW 6.9 mph - 0.03 in Rain Light Rain
9:35 AM 73.4 °F - 73.4 °F 100% 29.94 in 5.0 mi WSW 9.2 mph - 0.03 in   Overcast
9:55 AM 73.4 °F - 73.4 °F 100% 29.94 in 10.0 mi WSW 13.8 mph 17.3 mph 0.03 in   Overcast
10:15 AM 75.2 °F - 75.2 °F 100% 29.94 in 10.0 mi West 13.8 mph - N/A   Overcast
10:35 AM 78.8 °F - 78.8 °F 100% 29.94 in 5.0 mi West 11.5 mph 20.7 mph N/A   Mostly Cloudy
10:55 AM 78.8 °F - 71.6 °F 78% 29.94 in 10.0 mi West 11.5 mph - N/A   Overcast
11:15 AM 78.8 °F - 71.6 °F 78% 29.93 in 10.0 mi WSW 13.8 mph 17.3 mph N/A   Overcast
11:35 AM 80.6 °F 83.2 °F 68.0 °F 65% 29.93 in 10.0 mi WSW 15.0 mph 19.6 mph N/A   Scattered Clouds
11:55 AM 80.6 °F 83.2 °F 68.0 °F 65% 29.92 in 10.0 mi West 9.2 mph - N/A   Scattered Clouds
12:15 PM 82.4 °F 85.4 °F 68.0 °F 62% 29.92 in 10.0 mi West 12.7 mph 17.3 mph N/A   Mostly Cloudy
12:35 PM 77.0 °F - 68.0 °F 74% 29.92 in 10.0 mi NW 8.1 mph 17.3 mph N/A   Overcast
12:55 PM 73.4 °F - 69.8 °F 88% 29.93 in 5.0 mi WNW 6.9 mph - 0.03 in Rain Heavy Rain
1:15 PM 75.2 °F - 73.4 °F 94% 29.92 in 10.0 mi West 5.8 mph - N/A   Overcast
1:35 PM 77.0 °F - 73.4 °F 89% 29.92 in 10.0 mi WNW 9.2 mph - N/A   Mostly Cloudy
1:55 PM 77.0 °F - 71.6 °F 83% 29.92 in 10.0 mi West 6.9 mph - N/A   Mostly Cloudy
2:15 PM 77.0 °F - 71.6 °F 83% 29.92 in 7.0 mi NW 4.6 mph - N/A Rain Rain
2:35 PM 77.0 °F - 71.6 °F 83% 29.91 in 10.0 mi West 4.6 mph - N/A   Overcast
2:55 PM 78.8 °F - 71.6 °F 78% 29.91 in 10.0 mi WNW 5.8 mph - N/A   Mostly Cloudy
3:15 PM 78.8 °F - 71.6 °F 78% 29.90 in 10.0 mi West 6.9 mph - N/A   Mostly Cloudy
3:35 PM 80.6 °F 83.2 °F 68.0 °F 65% 29.90 in 10.0 mi NNW 10.4 mph - N/A   Mostly Cloudy
3:55 PM 77.0 °F - 68.0 °F 74% 29.91 in 10.0 mi NNW 9.2 mph 16.1 mph N/A   Mostly Cloudy
4:15 PM 75.2 °F - 68.0 °F 78% 29.91 in 10.0 mi NNW 9.2 mph - N/A   Overcast
4:35 PM 78.8 °F - 69.8 °F 74% 29.91 in 10.0 mi North 11.5 mph 16.1 mph N/A   Scattered Clouds
4:55 PM 78.8 °F - 68.0 °F 69% 29.90 in 10.0 mi NNW 10.4 mph - N/A   Scattered Clouds
5:15 PM 77.0 °F - 68.0 °F 74% 29.90 in 10.0 mi NNW 10.4 mph - N/A   Scattered Clouds
5:35 PM 78.8 °F - 68.0 °F 69% 29.90 in 10.0 mi North 11.5 mph - N/A   Clear
5:55 PM 78.8 °F - 68.0 °F 69% 29.90 in 10.0 mi NNW 6.9 mph - N/A   Clear
6:15 PM 77.0 °F - 68.0 °F 74% 29.90 in 10.0 mi North 6.9 mph - N/A   Clear
6:35 PM 77.0 °F - 68.0 °F 74% 29.90 in 10.0 mi NNW 6.9 mph - N/A   Clear
6:55 PM 77.0 °F - 66.2 °F 69% 29.91 in 10.0 mi NW 6.9 mph - N/A   Scattered Clouds
7:15 PM 77.0 °F - 66.2 °F 69% 29.91 in 10.0 mi NW 5.8 mph - N/A   Scattered Clouds
7:35 PM 73.4 °F - 68.0 °F 83% 29.92 in 10.0 mi NNW 4.6 mph - N/A   Clear
7:55 PM 73.4 °F - 68.0 °F 83% 29.92 in 10.0 mi Calm Calm - N/A   Scattered Clouds
8:15 PM 73.4 °F - 68.0 °F 83% 29.93 in 10.0 mi Calm Calm - N/A   Mostly Cloudy
8:35 PM 73.4 °F - 68.0 °F 83% 29.93 in 10.0 mi Calm Calm - N/A   Mostly Cloudy
8:55 PM 73.4 °F - 68.0 °F 83% 29.94 in 10.0 mi Calm Calm - N/A   Overcast
9:15 PM 71.6 °F - 68.0 °F 88% 29.95 in 10.0 mi Calm Calm - N/A   Overcast
9:35 PM 71.6 °F - 68.0 °F 88% 29.95 in 10.0 mi Calm Calm - N/A   Mostly Cloudy
9:55 PM 71.6 °F - 68.0 °F 88% 29.95 in 10.0 mi North 3.5 mph - N/A   Clear
10:15 PM 69.8 °F - 68.0 °F 94% 29.96 in 10.0 mi North 3.5 mph - N/A   Clear
10:35 PM 69.8 °F - 69.8 °F 100% 29.96 in 10.0 mi North 3.5 mph - N/A   Clear
10:55 PM 69.8 °F - 68.0 °F 94% 29.96 in 10.0 mi North 4.6 mph - N/A   Clear
11:15 PM 69.8 °F - 68.0 °F 94% 29.97 in 10.0 mi Calm Calm - N/A   Clear
11:35 PM 69.8 °F - 68.0 °F 94% 29.97 in 10.0 mi Calm Calm - N/A   Clear
11:55 PM 69.8 °F - 69.8 °F 100% 29.97 in 10.0 mi Calm Calm - N/A   Clear